This is the latest recevied weather packets stored in our database for station/object K7TUS-6. If no packets are shown the sender has not sent any weather packets the latest 10 day(s).
| Time | Temp. | Humidity | Pressure | Rain* | Wind** | Luminosity | Snow |
|---|---|---|---|---|---|---|---|
| 1778171102 | 17.22° C | 1% | 986.2 hPa | - | - | - | - |
| 1778170808 | 17.22° C | 1% | 985.4 hPa | - | - | - | - |
| 1778170507 | 17.22° C | 1% | 985.6 hPa | - | - | - | - |
| 1778170207 | 16.67° C | 1% | 985.7 hPa | - | - | - | - |
| 1778169906 | 16.11° C | 1% | 985.6 hPa | - | - | - | - |
| 1778169606 | 16.11° C | 1% | 984.8 hPa | - | - | - | - |
| 1778169305 | 15.56° C | 1% | 985.5 hPa | - | - | - | - |
| 1778169004 | 15.56° C | 1% | 985.2 hPa | - | - | - | - |
| 1778168704 | 15.56° C | 1% | 986.1 hPa | - | - | - | - |
| 1778168403 | 15° C | 1% | 985.4 hPa | - | - | - | - |
| 1778168108 | 15° C | 1% | 984.2 hPa | - | - | - | - |
| 1778167808 | 15° C | 1% | 983.8 hPa | - | - | - | - |
| 1778167507 | 14.44° C | 1% | 985.2 hPa | - | - | - | - |
| 1778167207 | 14.44° C | 1% | 984.8 hPa | - | - | - | - |
| 1778166906 | 13.89° C | 1% | 984.9 hPa | - | - | - | - |
| 1778166605 | 13.89° C | 1% | 985.1 hPa | - | - | - | - |
| 1778166305 | 13.33° C | 1% | 984.1 hPa | - | - | - | - |
| 1778166004 | 13.89° C | 1% | 984.6 hPa | - | - | - | - |
| 1778165704 | 13.89° C | 1% | 984.2 hPa | - | - | - | - |
| 1778165403 | 13.89° C | 1% | 983.7 hPa | - | - | - | - |
| 1778165103 | 13.89° C | 1% | 984.6 hPa | - | - | - | - |
| 1778164808 | 13.33° C | 1% | 985.2 hPa | - | - | - | - |
| 1778164507 | 13.89° C | 1% | 984.3 hPa | - | - | - | - |
| 1778164207 | 13.89° C | 1% | 984.6 hPa | - | - | - | - |
| 1778163906 | 13.89° C | 1% | 985.5 hPa | - | - | - | - |
* Rain since midnight (hover to see other rain measurements)
** Current wind speed in m/s (hover to see current wind gust speed)